sat.trackr.live / text

‹ back to catalog

STARLINK-2338

NORAD 47793 · 2021-018G

PAYLOAD ACTIVE UNKNOWN

§ Identity

Operator
Country
US
Launch date
2021-03-11
Launch site
AFETR
Launch vehicle
Mass (kg)
RCS (m²)

Purposes: comms

External: N2YO · Heavens-Above · Gunter

§ Orbital elements

Epoch: 2026-05-24T23:49:30.413568Z

Period
94.01 min
Inclination
53.1614°
Eccentricity
0.0000889
Mean motion
15.31703258 rev/d
Perigee alt
470.1 km
Apogee alt
471.3 km
Semi-major
6,848.9 km
B*
4.1974e-4
RAAN
244.2517°
Arg perigee
84.3178°
Mean anomaly
275.7925°
Rev number
28,844

§ Raw data

STARLINK-23381 47793U 21018G   26144.99271312  .00012684  00000+0  41974-3 0  99912 47793  53.1614 244.2517 0000889  84.3178 275.7925 15.31703258288441

JSON: /api/v1/satellites/47793 · /tle

For live sub-satellite position, see the globe view (requires WebGL).

§ Visibility from observer

Set your observer location to see the next 7 days of passes ≥ 10°. The values pass through the URL so the page stays shareable.

No JS? Fill the form by hand. The geolocation button needs JavaScript.